Regional Weather Roundup
Issued by NWS

Home | Current Version | Previous Version | Text Only | Print | Product List | Glossary Off
Versions: 1 2 3 4 5 6 7 8 9 10 11 12 13 14 15 16 17 18 19 20 21 22 23 24 25 26 27 28 29 30 31 32 33 34 35 36 37 38 39 40 41 42 43 44 45 46 47 48 49 50

000
ASUS43 KLSX 191657
RWRMO

WEATHER SUMMARY FOR MISSOURI
NATIONAL WEATHER SERVICE SPRINGFIELD MO
1200 PM CDT SAT AUG 19 2017

NOTE: "FAIR" INDICATES FEW OR NO CLOUDS BELOW 12,000 FEET WITH NO
       SIGNIFICANT WEATHER AND/OR OBSTRUCTIONS TO VISIBILITY.
       CURRENT SKY AND/OR WEATHER CONDITIONS ARE NOT AVAILABLE FOR
       CHILLICOTHE AND FARMINGTON.

MOZ001>031-035>038-043-044-053-054-191800-
...NORTHERN AND WESTERN MISSOURI...

CITY           SKY/WX    TMP DP  RH WIND       PRES   REMARKS
KANSAS CTY INT SUNNY     86  70  58 CALM      29.99S HX  90
LEE`S SUMMIT   SUNNY     86  70  58 VRB3      29.99S HX  90
ST JOSEPH      SUNNY     84  68  58 CALM      29.98S
CHILLICOTHE      N/A     85  69  58 CALM      29.98S

$$
MOZ066>068-077>081-088>096-101>105-191800-
...SOUTHWEST MISSOURI...

CITY           SKY/WX    TMP DP  RH WIND       PRES   REMARKS
SPRINGFIELD    SUNNY     86  75  69 W12       30.01R HX  95
JOPLIN         MOSUNNY   87  79  76 SW8       30.00F HX 101
BRANSON        MOSUNNY   84  73  70 NW9       30.04S HX  91

$$
MOZ032>034-039>042-045>050-055>058-069>072-191800-
...CENTRAL MISSOURI...

CITY           SKY/WX    TMP DP  RH WIND       PRES   REMARKS
COLUMBIA       NOT AVBL
JEFFERSON CITY SUNNY     83  75  77 S3        29.96F HX  90
ROLLA          SUNNY     84  73  69 VRB3      30.01S HX  90
SEDALIA        SUNNY     87  74  64 CALM      29.99F HX  95
WARRENSBURG    SUNNY     82  68  61 CALM      29.99R

$$
MOZ051-052-059>065-191800-
...EAST CENTRAL MISSOURI...

CITY           SKY/WX    TMP DP  RH WIND       PRES   REMARKS
ST LOUIS INTL  MOSUNNY   86  68  54 SW5       29.97S

$$
MOZ072>076-082>087-097>100-106>115-191800-
...SOUTH CENTRAL AND SOUTHEAST MISSOURI...

CITY           SKY/WX    TMP DP  RH WIND       PRES   REMARKS
CAPE GIRARDEAU SUNNY     88  70  55 CALM      29.96S HX  93
POPLAR BLUFF   SUNNY     89  73  59 CALM      29.96F HX  97
WEST PLAINS    SUNNY     89  71  55 W9        30.02F HX  95

$$


USA.gov is the U.S. government's official web portal to all federal, state and local government web resources and services.